Retour au catalogue

ASO-S

ActifScienceSSO
NORAD 54029·PAYLOAD·🇨🇳 China

Lancé Oct 8, 2022 depuis Jiuquan Satellite Launch Center

Loading…

Prochains Passages (prochaines 24 heures)

TLE

FraisSource: Space-Track

Époque: Sep 14, 2026, 15:02 UTC

1 54029U 22129A   26257.62641771  .00000089  00000-0  33004-4 0  9993
2 54029  98.2797 261.4472 0014375 172.7678 187.3728 14.52095572208408

Suivez ASO-S en temps réel avec AllMySat

Download on the App Store